Flag for Germany Weather past 2 weeks in Husum, Schleswig-Holstein, Germany

Now
57 °F

Partly sunny.


Feels Like: 54 °F
Forecast: 48 / 55 °F
Wind: 13 mph from Southwest

Location: Schleswig-Jagel

Current Time: May 29, 2015 at 12:50:46 PM

Latest Report: May 29, 2015 at 11:20 AM


Visibility: N/A

Pressure: 29.80 "Hg

Humidity: 55%

Dew point: 41 °F

Location of HusumLocation

Historic Weather in Husum — Graph

°F

Husum temperature yesterday

Maximum temperature yesterday: 57 °F (at 11:20 AM)
Minimum temperature yesterday: 46 °F (at 10:20 PM)
Average temperature yesterday: 53 °F

Past Weeks' High & Low Weather Summary

 TemperatureHumidityPressure
High64 °F (May 22, 3:20 PM)100% (May 16, 3:20 PM)30.27 "Hg (May 16, 3:20 PM)
Low41 °F (May 15, 10:20 PM)49% (May 22, 4:20 PM)29.50 "Hg (May 19, 1:20 AM)
Average50 °F76%29.98 "Hg
* Reported May 14 11:20 AM — May 29 11:20 AM, Husum, Weather by CustomWeather, © 2015

Note: Actual official high and low records may vary slightly from our data, if they occured in-between our weather recording intervals... More about our weather records

Advertising

Husum weather history for previous 24 hours

 ConditionsComfort  
Time TempWeatherWind HumidityBarometerVisibility
11:20 AM
Fri, May 29
57 °FPartly sunny.13 mph55%29.80 "HgN/A
10:20 AM55 °FScattered clouds.15 mph59%29.83 "HgN/A
9:20 AM55 °FPassing clouds.13 mph63%29.83 "HgN/A
8:20 AM52 °FPassing clouds.9 mph77%29.83 "HgN/A
7:20 AM46 °FPassing clouds.9 mph87%29.83 "HgN/A
6:20 AM46 °FSprinkles. Scattered clouds.9 mph87%29.83 "HgN/A
5:20 AM43 °FPassing clouds.8 mph93%29.83 "HgN/A
4:20 AM43 °FQuite cool.8 mph87%29.83 "Hg3 mi
3:20 AM43 °FQuite cool.6 mph87%29.86 "Hg4 mi
2:20 AM43 °FQuite cool.5 mph93%29.86 "Hg3 mi
1:20 AM41 °FQuite cool.5 mph93%29.86 "Hg3 mi
12:20 AM45 °FQuite cool.8 mph87%29.86 "Hg3 mi
11:20 PM
Thu, May 28
46 °FCool.7 mph82%29.86 "Hg4 mi
10:20 PM46 °FCool.7 mph82%29.86 "Hg4 mi
9:20 PM48 °FCool.9 mph82%29.83 "Hg4 mi
8:20 PM50 °FCool.15 mph76%29.83 "Hg3 mi
7:20 PM54 °FCool.20 mph63%29.80 "Hg4 mi
6:20 PM54 °FCool.23 mph63%29.80 "Hg4 mi
5:20 PM55 °FCool.22 mph63%29.80 "Hg3 mi
4:59 PM55 °FScattered clouds.23 mph59%29.80 "HgN/A
4:20 PM55 °FScattered clouds.21 mph63%29.80 "HgN/A
3:20 PM57 °FScattered clouds.23 mph59%29.80 "HgN/A
2:20 PM57 °FScattered clouds.22 mph72%29.77 "HgN/A
1:20 PM55 °FBroken clouds.22 mph77%29.77 "HgN/A
12:20 PM57 °FSprinkles. Broken clouds.20 mph77%29.77 "HgN/A
Weather by CustomWeather, © 2015

See weather overviewHow to use our weather pages